Flag for U.S.A. Weather past 2 weeks in Riverside, California, U.S.A.

Now
71 °F

Sunny.


Feels Like: 72 °F
Forecast: 41 / 68 °F
Wind: 10 mph from Northeast

Location: Riverside Municipal Airport

Current Time: Mar 4, 2015 at 3:28:43 PM

Latest Report: Mar 4, 2015 at 1:53 PM


Visibility: 10 mi

Pressure: 30.03 "Hg

Humidity: 10%

Dew point: 12 °F

Location of RiversideLocation

Historic Weather in Riverside — Graph

°F

Riverside temperature yesterday

Maximum temperature yesterday: 65 °F (at 1:53 PM)
Minimum temperature yesterday: 40 °F (at 4:53 AM)
Average temperature yesterday: 52 °F

Past Weeks' High & Low Weather Summary

 TemperatureHumidityPressure
High78 °F (Feb 19, 2:53 PM)97% (Feb 18, 6:53 AM)30.20 "Hg (Feb 18, 6:53 AM)
Low40 °F (Mar 3, 4:53 AM)10% (Mar 4, 12:53 PM)29.72 "Hg (Feb 27, 5:53 PM)
Average57 °F67%29.95 "Hg
* Reported Feb 17 1:53 PM — Mar 4 1:53 PM, Riverside, Weather by CustomWeather, © 2015

Note: Actual official high and low records may vary slightly from our data, if they occured in-between our weather recording intervals... More about our weather records

Advertising

Riverside weather history for previous 24 hours

 ConditionsComfort  
Time TempWeatherWind HumidityBarometerVisibility
1:53 PM
Wed, Mar 4
71 °FSunny.10 mph10%30.03 "Hg10 mi
12:53 PM71 °FSunny.9 mph10%30.04 "Hg10 mi
11:53 AM68 °FSunny.10 mph12%30.05 "Hg10 mi
10:53 AM66 °FSunny.14 mph15%30.05 "Hg10 mi
9:53 AM64 °FSunny.13 mph19%30.05 "Hg10 mi
8:53 AM62 °FSunny.8 mph24%30.04 "Hg10 mi
7:53 AM58 °FSunny.5 mph38%30.03 "Hg10 mi
6:53 AM51 °FSunny.7 mph56%30.00 "Hg10 mi
5:53 AM44 °FClear.6 mph79%29.98 "Hg10 mi
4:53 AM45 °FClear.No wind82%29.96 "Hg10 mi
3:53 AM44 °FClear.5 mph85%29.95 "Hg10 mi
2:53 AM46 °FPassing clouds.No wind83%29.95 "Hg10 mi
1:53 AM47 °FClear.3 mph80%29.96 "Hg10 mi
12:53 AM48 °FClear.No wind77%29.95 "Hg10 mi
11:53 PM
Tue, Mar 3
48 °FClear.No wind77%29.93 "Hg10 mi
10:53 PM50 °FClear.No wind71%29.94 "Hg10 mi
9:53 PM52 °FClear.No wind69%29.93 "Hg10 mi
8:53 PM53 °FClear.No wind64%29.92 "Hg10 mi
7:53 PM54 °FClear.No wind64%29.90 "Hg10 mi
6:53 PM56 °FClear.8 mph58%29.87 "Hg10 mi
5:53 PM58 °FClear.10 mph54%29.85 "Hg10 mi
4:53 PM61 °FSunny.15 mph48%29.83 "Hg10 mi
3:53 PM65 °FSunny.6 mph33%29.83 "Hg10 mi
Weather by CustomWeather, © 2015

See weather overviewHow to use our weather pages